| time (UTC) | temp F | wind direction | speed knots | gust knots | rain 1hr in | rain 24hr in | rain mn in | humidity % | barometer mb |
| 20260906052530 | 74 | 221 | 0.0 | 1.7 | 0.00 | 0.00 | 0.00 | 60 | 1020.7 |
| 20260906045533 | 73 | 226 | 0.9 | 1.7 | 0.00 | 0.00 | 0.00 | 61 | 1020.5 |
| 20260906042516 | 74 | 231 | 0.9 | 1.7 | 0.00 | 0.00 | 0.00 | 60 | 1020.3 |
| 20260906035519 | 74 | 201 | 0.0 | 0.9 | 0.00 | 0.00 | 0.00 | 58 | 1020.1 |
| 20260906032523 | 75 | 233 | 0.0 | 0.0 | 0.00 | 0.00 | 0.00 | 58 | 1019.7 |
| 20260906025527 | 75 | 222 | 0.0 | 0.0 | 0.00 | 0.00 | 0.00 | 57 | 1019.6 |
| 20260906022530 | 76 | 222 | 0.0 | 0.9 | 0.00 | 0.00 | 0.00 | 55 | 1019.5 |
| 20260906015533 | 76 | 226 | 0.9 | 1.7 | 0.00 | 0.00 | 0.00 | 56 | 1019.1 |
| 20260906012517 | 76 | 242 | 0.0 | 0.9 | 0.00 | 0.00 | 0.00 | 56 | 1019.3 |
| 20260906005520 | 77 | 232 | 0.0 | 0.9 | 0.00 | 0.00 | 0.00 | 56 | 1019.2 |
| 20260906002523 | 78 | 228 | 0.9 | 2.6 | 0.00 | 0.00 | 0.00 | 54 | 1019.4 |
| 20260905235526 | 78 | 227 | 0.9 | 2.6 | 0.00 | 0.00 | 0.00 | 53 | 1019.3 |
| 20260905232530 | 77 | 227 | 0.9 | 0.9 | 0.00 | 0.00 | 0.00 | 52 | 1019.2 |
| 20260905225533 | 77 | 228 | 0.9 | 2.6 | 0.00 | 0.00 | 0.00 | 52 | 1019.2 |
| 20260905222517 | 77 | 227 | 0.9 | 1.7 | 0.00 | 0.00 | 0.00 | 50 | 1019.0 |
| 20260905215520 | 77 | 235 | 0.9 | 2.6 | 0.00 | 0.00 | 0.00 | 49 | 1019.0 |
| 20260905212523 | 75 | 185 | 0.0 | 0.0 | 0.00 | 0.00 | 0.00 | 53 | 1018.8 |
| 20260905205527 | 75 | 185 | 0.0 | 0.0 | 0.00 | 0.00 | 0.00 | 50 | 1018.9 |
| 20260905202531 | 77 | 185 | 0.0 | 0.0 | 0.00 | 0.00 | 0.00 | 49 | 1018.9 |
| 20260905195535 | 79 | 185 | 0.0 | 0.0 | 0.00 | 0.00 | 0.00 | 46 | 1018.6 |
| 20260905192517 | 80 | 184 | 0.0 | 0.9 | 0.00 | 0.00 | 0.00 | 45 | 1018.6 |
| 20260905185521 | 81 | 155 | 0.0 | 0.9 | 0.00 | 0.00 | 0.00 | 43 | 1018.3 |
| 20260905182524 | 81 | 121 | 0.0 | 1.7 | 0.00 | 0.00 | 0.00 | 42 | 1017.9 |
| 20260905175528 | 83 | 107 | 0.9 | 5.2 | 0.00 | 0.00 | 0.00 | 38 | 1017.9 |
| 20260905172536 | 84 | 76 | 3.5 | 6.1 | 0.00 | 0.00 | 0.00 | 33 | 1017.4 |
| 20260905165534 | 86 | 98 | 2.6 | 7.0 | 0.00 | 0.00 | 0.00 | 33 | 1017.4 |
| 20260905162524 | 87 | 96 | 5.2 | 7.8 | 0.00 | 0.00 | 0.00 | 32 | 1017.3 |
| 20260905155521 | 91 | 95 | 6.1 | 11.3 | 0.00 | 0.00 | 0.00 | 30 | 1017.2 |
| 20260905152524 | 92 | 95 | 4.3 | 8.7 | 0.00 | 0.00 | 0.00 | 29 | 1017.3 |
| 20260905145528 | 93 | 87 | 6.1 | 11.3 | 0.00 | 0.00 | 0.00 | 32 | 1017.2 |
| 20260905142535 | 95 | 82 | 4.3 | 7.8 | 0.00 | 0.00 | 0.00 | 31 | 1017.4 |
| 20260905135534 | 95 | 56 | 5.2 | 11.3 | 0.00 | 0.00 | 0.00 | 27 | 1017.3 |
| 20260905132518 | 97 | 71 | 3.5 | 7.8 | 0.00 | 0.00 | 0.00 | 27 | 1017.5 |
| 20260905125521 | 103 | 236 | 2.6 | 7.0 | 0.00 | 0.00 | 0.00 | 20 | 1017.6 |
| 20260905122539 | 100 | 243 | 3.5 | 7.0 | 0.00 | 0.00 | 0.00 | 22 | 1017.7 |
| 20260905115528 | 100 | 237 | 3.5 | 7.0 | 0.00 | 0.00 | 0.00 | 22 | 1017.9 |
| 20260905112532 | 99 | 243 | 2.6 | 7.0 | 0.00 | 0.00 | 0.00 | 22 | 1018.1 |
| 20260905105535 | 99 | 241 | 2.6 | 7.8 | 0.00 | 0.00 | 0.00 | 21 | 1018.1 |
| 20260905102519 | 99 | 234 | 1.7 | 3.5 | 0.00 | 0.00 | 0.00 | 21 | 1017.9 |
| 20260905095522 | 100 | 247 | 1.7 | 5.2 | 0.00 | 0.00 | 0.00 | 20 | 1018.0 |
| 20260905092525 | 98 | 230 | 1.7 | 5.2 | 0.00 | 0.00 | 0.00 | 23 | 1018.0 |
| 20260905085528 | 96 | 225 | 1.7 | 3.5 | 0.00 | 0.00 | 0.00 | 26 | 1017.8 |
| 20260905082532 | 92 | 201 | 0.9 | 5.2 | 0.00 | 0.00 | 0.00 | 29 | 1017.9 |
| 20260905075535 | 89 | 240 | 2.6 | 5.2 | 0.00 | 0.00 | 0.00 | 32 | 1017.7 |
| 20260905072518 | 87 | 227 | 1.7 | 3.5 | 0.00 | 0.00 | 0.00 | 34 | 1017.5 |
| 20260905065521 | 87 | 232 | 1.7 | 2.6 | 0.00 | 0.00 | 0.00 | 35 | 1017.7 |
| 20260905062525 | 85 | 231 | 1.7 | 3.5 | 0.00 | 0.00 | 0.00 | 37 | 1017.7 |
| 20260905055528 | 83 | 233 | 2.6 | 5.2 | 0.00 | 0.00 | 0.00 | 39 | 1017.5 |